GTI518 PANC-KLAX

Flight info

Callsign GTI518
Flight time N/A
Altitude 31000
Route TED J804R MDO SAYNT 52N137W 50N135W 46N130W HEMLO/N0489F330 BOXER FOT ENI J143 PYE J501 BSR MCKEY LEENA8
Aircraft B742/H-SDFHIRWXY/L

Departure

Time N/A
Airport Ted Stevens Anchorage International Airport (PANC)

Arrival

Time 2026-04-26 03:17
Airport Los Angeles International Airport (KLAX)
Time Latitude Longitude Altitude Speed Heading
2026-04-26 02:18 39.35677 -123.45113 34988 ft 485 kts 157°
2026-04-26 02:18 39.32632 -123.43366 34885 ft 478 kts 157°
2026-04-26 02:19 39.26245 -123.39651 34836 ft 486 kts 156°
2026-04-26 02:19 38.97916 -123.23852 34834 ft 486 kts 164°
2026-04-26 02:20 38.87429 -123.19839 34839 ft 484 kts 163°
2026-04-26 02:20 38.76405 -123.15272 34839 ft 483 kts 162°
2026-04-26 02:21 38.45088 -123.02181 34881 ft 485 kts 162°
2026-04-26 02:21 38.34214 -122.97640 34864 ft 493 kts 162°
2026-04-26 02:22 38.22937 -122.92962 34858 ft 486 kts 162°
2026-04-26 02:22 38.12003 -122.88444 34850 ft 492 kts 162°
2026-04-26 02:23 38.05561 -122.85355 34859 ft 486 kts 154°
2026-04-26 02:23 37.99369 -122.81993 34861 ft 487 kts 156°
2026-04-26 02:24 37.93327 -122.77962 34863 ft 491 kts 150°
2026-04-26 02:24 37.87400 -122.73760 34850 ft 491 kts 151°
2026-04-26 02:25 37.81446 -122.69709 34868 ft 489 kts 152°
2026-04-26 02:25 37.22757 -122.30984 34855 ft 490 kts 154°
2026-04-26 02:26 36.76943 -122.02097 34898 ft 490 kts 152°
2026-04-26 02:26 36.67960 -121.95969 34908 ft 492 kts 153°
2026-04-26 02:27 36.60643 -121.91199 34906 ft 490 kts 154°
2026-04-26 02:27 36.25772 -121.69012 34870 ft 492 kts 155°
2026-04-26 02:28 36.14628 -121.61543 34880 ft 493 kts 149°
2026-04-26 02:28 36.03687 -121.52554 34906 ft 496 kts 148°
2026-04-26 02:29 35.92949 -121.43871 34881 ft 492 kts 149°
2026-04-26 02:29 35.72355 -121.27400 34886 ft 495 kts 150°
2026-04-26 02:30 35.66651 -121.22908 34883 ft 493 kts 150°
2026-04-26 02:30 35.60887 -121.18341 34893 ft 493 kts 150°
2026-04-26 02:31 35.55136 -121.13773 34904 ft 494 kts 150°
2026-04-26 02:31 35.49383 -121.09205 34900 ft 494 kts 150°
2026-04-26 02:32 35.43648 -121.04658 34896 ft 495 kts 151°
2026-04-26 02:32 35.37867 -121.00084 34907 ft 496 kts 151°
2026-04-26 02:33 35.32076 -120.95510 34906 ft 495 kts 151°
2026-04-26 02:33 35.26335 -120.90983 34916 ft 495 kts 151°
2026-04-26 02:34 35.20569 -120.86443 34913 ft 494 kts 151°
2026-04-26 02:34 35.14819 -120.81925 34922 ft 494 kts 151°
2026-04-26 02:35 35.09007 -120.77367 34924 ft 495 kts 152°
2026-04-26 02:35 35.03285 -120.72885 34923 ft 494 kts 152°
2026-04-26 02:36 34.97515 -120.68375 34924 ft 496 kts 152°
2026-04-26 02:36 34.92775 -120.64677 34936 ft 498 kts 152°
2026-04-26 02:37 34.87015 -120.60186 34933 ft 496 kts 152°
2026-04-26 02:37 34.81278 -120.55720 34936 ft 497 kts 152°
2026-04-26 02:38 34.75448 -120.51191 34938 ft 497 kts 152°
2026-04-26 02:38 34.69637 -120.46685 34939 ft 498 kts 152°
2026-04-26 02:39 34.63860 -120.42213 34937 ft 496 kts 152°
2026-04-26 02:39 34.60941 -120.39957 34654 ft 502 kts 152°
2026-04-26 02:39 34.58033 -120.37716 34274 ft 505 kts 152°
2026-04-26 02:39 34.55085 -120.35440 33887 ft 500 kts 152°
2026-04-26 02:40 34.52212 -120.33231 33494 ft 491 kts 153°
2026-04-26 02:40 34.49386 -120.31080 33096 ft 483 kts 154°
2026-04-26 02:40 34.46568 -120.28938 32700 ft 476 kts 154°
2026-04-26 02:40 34.43748 -120.26789 32281 ft 472 kts 154°
2026-04-26 02:41 34.40990 -120.24681 31871 ft 470 kts 154°
2026-04-26 02:41 34.38263 -120.22595 31471 ft 469 kts 154°
2026-04-26 02:41 34.35500 -120.20480 31059 ft 466 kts 154°
2026-04-26 02:41 34.32814 -120.18419 30659 ft 461 kts 154°
2026-04-26 02:42 34.30124 -120.16356 30245 ft 455 kts 154°
2026-04-26 02:42 34.27508 -120.14269 29790 ft 454 kts 148°
2026-04-26 02:42 34.25258 -120.11673 29293 ft 460 kts 135°
2026-04-26 02:42 34.23387 -120.08538 28819 ft 463 kts 128°
2026-04-26 02:43 34.20016 -120.01746 28004 ft 481 kts 125°
2026-04-26 02:43 34.18344 -119.98316 27656 ft 479 kts 125°
2026-04-26 02:43 34.16663 -119.94902 27299 ft 473 kts 126°
2026-04-26 02:44 34.14976 -119.91516 26934 ft 468 kts 126°
2026-04-26 02:44 34.13302 -119.88187 26569 ft 465 kts 126°
2026-04-26 02:44 34.11601 -119.84825 26202 ft 464 kts 126°
2026-04-26 02:44 34.09934 -119.81539 25842 ft 462 kts 126°
2026-04-26 02:45 34.08268 -119.78265 25490 ft 459 kts 126°
2026-04-26 02:45 34.06596 -119.74981 25130 ft 456 kts 126°
2026-04-26 02:45 34.04958 -119.71763 24775 ft 450 kts 126°
2026-04-26 02:45 34.03328 -119.68563 24413 ft 444 kts 126°
2026-04-26 02:46 34.01742 -119.65454 24082 ft 436 kts 126°
2026-04-26 02:46 34.00176 -119.62384 23942 ft 424 kts 126°
2026-04-26 02:46 33.98653 -119.59399 23909 ft 408 kts 126°
2026-04-26 02:46 33.97197 -119.56553 23906 ft 395 kts 126°
2026-04-26 02:47 33.95771 -119.53773 23845 ft 388 kts 127°
2026-04-26 02:47 33.94362 -119.51029 23731 ft 383 kts 127°
2026-04-26 02:47 33.92974 -119.48334 23432 ft 384 kts 127°
2026-04-26 02:47 33.91557 -119.45580 22951 ft 386 kts 127°
2026-04-26 02:48 33.90154 -119.42851 22451 ft 385 kts 127°
2026-04-26 02:48 33.88748 -119.40116 22020 ft 383 kts 127°
2026-04-26 02:48 33.87351 -119.37399 21613 ft 381 kts 127°
2026-04-26 02:48 33.85966 -119.34710 21260 ft 381 kts 127°
2026-04-26 02:49 33.84595 -119.32079 20958 ft 378 kts 128°
2026-04-26 02:49 33.83202 -119.29415 20773 ft 375 kts 128°
2026-04-26 02:49 33.81818 -119.26756 20643 ft 377 kts 127°
2026-04-26 02:49 33.80430 -119.24078 20561 ft 377 kts 127°
2026-04-26 02:50 33.79048 -119.21404 20509 ft 378 kts 127°
2026-04-26 02:50 33.77659 -119.18721 20395 ft 379 kts 127°
2026-04-26 02:50 33.76271 -119.16041 20285 ft 378 kts 127°
2026-04-26 02:50 33.74897 -119.13386 20166 ft 376 kts 127°
2026-04-26 02:51 33.73509 -119.10708 20053 ft 376 kts 128°
2026-04-26 02:51 33.72123 -119.08038 19939 ft 376 kts 127°
2026-04-26 02:51 33.70744 -119.05383 19820 ft 376 kts 128°
2026-04-26 02:51 33.69379 -119.02756 19704 ft 376 kts 128°
2026-04-26 02:52 33.67987 -119.00079 19585 ft 374 kts 128°
2026-04-26 02:52 33.66616 -118.97443 19477 ft 372 kts 128°
2026-04-26 02:52 33.65246 -118.94814 19368 ft 373 kts 128°
2026-04-26 02:52 33.63876 -118.92187 19257 ft 372 kts 128°
2026-04-26 02:53 33.62503 -118.89552 19148 ft 369 kts 128°
2026-04-26 02:53 33.61145 -118.86949 19024 ft 369 kts 128°
2026-04-26 02:53 33.59799 -118.84374 18896 ft 369 kts 128°
2026-04-26 02:53 33.58426 -118.81749 18766 ft 368 kts 128°
2026-04-26 02:54 33.57075 -118.79165 18642 ft 368 kts 128°
2026-04-26 02:54 33.55722 -118.76582 18534 ft 367 kts 128°
2026-04-26 02:54 33.54361 -118.73984 18335 ft 366 kts 128°
2026-04-26 02:54 33.53037 -118.71455 18087 ft 360 kts 128°
2026-04-26 02:55 33.51713 -118.68928 17836 ft 354 kts 128°
2026-04-26 02:55 33.50409 -118.66444 17485 ft 354 kts 128°
2026-04-26 02:55 33.49096 -118.63951 17010 ft 354 kts 128°
2026-04-26 02:55 33.47783 -118.61455 16637 ft 351 kts 127°
2026-04-26 02:56 33.46499 -118.59013 16270 ft 348 kts 127°
2026-04-26 02:56 33.45228 -118.56596 16045 ft 341 kts 128°
2026-04-26 02:56 33.43977 -118.54217 15991 ft 337 kts 128°
2026-04-26 02:56 33.42722 -118.51842 15985 ft 342 kts 128°
2026-04-26 02:57 33.41444 -118.49419 15982 ft 342 kts 128°
2026-04-26 02:57 33.40176 -118.47018 15982 ft 341 kts 127°
2026-04-26 02:57 33.38918 -118.44637 15987 ft 342 kts 128°
2026-04-26 02:57 33.37733 -118.42152 15970 ft 347 kts 116°
2026-04-26 02:58 33.37051 -118.39331 15668 ft 358 kts 103°
2026-04-26 02:58 33.36690 -118.36433 15224 ft 359 kts 100°
2026-04-26 02:58 33.36367 -118.33484 14721 ft 361 kts 101°
2026-04-26 02:58 33.35997 -118.30493 14223 ft 361 kts 102°
2026-04-26 02:59 33.35611 -118.27554 13735 ft 362 kts 102°
2026-04-26 02:59 33.35219 -118.24583 13256 ft 362 kts 102°
2026-04-26 02:59 33.34830 -118.21639 12818 ft 360 kts 102°
2026-04-26 02:59 33.34444 -118.18704 12519 ft 354 kts 102°
2026-04-26 03:00 33.34066 -118.15818 12272 ft 345 kts 102°
2026-04-26 03:00 33.33701 -118.13042 12036 ft 338 kts 102°
2026-04-26 03:00 33.33338 -118.10307 11831 ft 329 kts 102°
2026-04-26 03:00 33.32986 -118.07638 11629 ft 321 kts 102°
2026-04-26 03:01 33.32642 -118.05056 11422 ft 316 kts 102°
2026-04-26 03:01 33.32301 -118.02486 11215 ft 313 kts 102°
2026-04-26 03:01 33.31960 -117.99931 11006 ft 311 kts 101°
2026-04-26 03:01 33.31627 -117.97382 10790 ft 310 kts 99°
2026-04-26 03:02 33.31772 -117.94817 10569 ft 311 kts 70°
2026-04-26 03:02 33.32872 -117.92615 10364 ft 309 kts 40°
2026-04-26 03:02 33.34624 -117.91293 10140 ft 295 kts 12°
2026-04-26 03:02 33.36605 -117.90910 9950 ft 283 kts 353°
2026-04-26 03:03 33.38512 -117.91161 9766 ft 270 kts 343°
2026-04-26 03:03 33.40306 -117.91670 9557 ft 262 kts 339°
2026-04-26 03:03 33.42051 -117.92264 9345 ft 263 kts 337°
2026-04-26 03:03 33.43814 -117.92893 9142 ft 262 kts 338°
2026-04-26 03:04 33.45554 -117.93522 8943 ft 260 kts 337°
2026-04-26 03:04 33.47296 -117.94154 8740 ft 261 kts 338°
2026-04-26 03:04 33.49010 -117.94777 8555 ft 259 kts 338°
2026-04-26 03:04 33.50749 -117.95409 8355 ft 258 kts 338°
2026-04-26 03:05 33.52470 -117.96034 8160 ft 257 kts 337°
2026-04-26 03:05 33.54154 -117.96648 7964 ft 256 kts 338°
2026-04-26 03:05 33.55867 -117.97271 7765 ft 256 kts 338°
2026-04-26 03:05 33.57576 -117.97893 7578 ft 254 kts 338°
2026-04-26 03:06 33.59223 -117.98492 7371 ft 249 kts 338°
2026-04-26 03:06 33.60879 -117.99094 7129 ft 244 kts 338°
2026-04-26 03:06 33.62468 -117.99672 7015 ft 232 kts 338°
2026-04-26 03:06 33.63988 -118.00227 6990 ft 231 kts 337°
2026-04-26 03:07 33.65503 -118.00782 6983 ft 233 kts 338°
2026-04-26 03:07 33.67023 -118.01337 6980 ft 232 kts 337°
2026-04-26 03:07 33.68559 -118.01897 6978 ft 231 kts 338°
2026-04-26 03:07 33.70101 -118.02460 6976 ft 231 kts 338°
2026-04-26 03:08 33.71654 -118.03029 6976 ft 233 kts 338°
2026-04-26 03:08 33.73190 -118.03590 6973 ft 233 kts 338°
2026-04-26 03:08 33.74715 -118.04148 6972 ft 232 kts 338°
2026-04-26 03:08 33.76255 -118.04710 6970 ft 233 kts 338°
2026-04-26 03:09 33.77786 -118.05271 6970 ft 233 kts 338°
2026-04-26 03:09 33.79326 -118.05857 6971 ft 231 kts 335°
2026-04-26 03:09 33.80913 -118.06111 6873 ft 242 kts 354°
2026-04-26 03:09 33.82546 -118.06393 6650 ft 237 kts 342°
2026-04-26 03:10 33.84120 -118.06835 6311 ft 235 kts 341°
2026-04-26 03:10 33.85700 -118.07295 5912 ft 236 kts 341°
2026-04-26 03:10 33.87277 -118.07769 5510 ft 237 kts 341°
2026-04-26 03:10 33.88868 -118.08270 5121 ft 238 kts 341°
2026-04-26 03:11 33.90466 -118.08782 4777 ft 236 kts 341°
2026-04-26 03:11 33.92010 -118.09289 4443 ft 234 kts 341°
2026-04-26 03:11 33.93545 -118.09807 4129 ft 230 kts 341°
2026-04-26 03:11 33.95061 -118.10328 3883 ft 225 kts 341°
2026-04-26 03:12 33.96477 -118.11011 3633 ft 215 kts 319°
2026-04-26 03:12 33.97265 -118.12441 3397 ft 206 kts 279°
2026-04-26 03:12 33.97099 -118.14095 3161 ft 201 kts 244°
2026-04-26 03:12 33.96507 -118.15526 2977 ft 192 kts 246°
2026-04-26 03:13 33.96057 -118.16978 2902 ft 181 kts 254°
2026-04-26 03:13 33.95754 -118.18455 2940 ft 184 kts 258°
2026-04-26 03:13 33.95549 -118.19966 2806 ft 184 kts 262°
2026-04-26 03:13 33.95401 -118.21460 2633 ft 178 kts 263°
2026-04-26 03:14 33.95263 -118.22907 2449 ft 169 kts 262°
2026-04-26 03:14 33.95128 -118.24246 2275 ft 165 kts 262°
2026-04-26 03:14 33.94985 -118.25592 2056 ft 162 kts 262°
2026-04-26 03:14 33.94854 -118.26917 1890 ft 160 kts 263°
2026-04-26 03:15 33.94719 -118.28237 1718 ft 155 kts 262°
2026-04-26 03:15 33.94595 -118.29507 1546 ft 149 kts 263°
2026-04-26 03:15 33.94480 -118.30690 1396 ft 142 kts 263°
2026-04-26 03:15 33.94361 -118.31868 1226 ft 145 kts 263°
2026-04-26 03:16 33.94247 -118.33071 988 ft 144 kts 263°
2026-04-26 03:16 33.94140 -118.34253 766 ft 143 kts 262°
2026-04-26 03:16 33.94022 -118.35417 581 ft 142 kts 262°
2026-04-26 03:16 33.93911 -118.36570 415 ft 142 kts 262°
2026-04-26 03:17 33.93791 -118.37740 226 ft 142 kts 262°
2026-04-26 03:17 33.93671 -118.38912 110 ft 140 kts 262°
2026-04-26 03:17 33.93574 -118.39861 118 ft 85 kts 264°
2026-04-26 03:17 33.93525 -118.40340 125 ft 44 kts 263°
2026-04-26 03:18 33.93484 -118.40701 129 ft 39 kts 262°
2026-04-26 03:18 33.93449 -118.41035 130 ft 40 kts 263°
2026-04-26 03:18 33.93412 -118.41221 129 ft 14 kts 205°
2026-04-26 03:18 33.93325 -118.41206 129 ft 11 kts 127°
2026-04-26 03:19 33.93323 -118.41124 130 ft 9 kts 82°
2026-04-26 03:19 33.93331 -118.41054 130 ft 7 kts 83°
2026-04-26 03:19 33.93336 -118.41003 130 ft 5 kts 84°
2026-04-26 03:19 33.93340 -118.40958 130 ft 4 kts 84°
2026-04-26 03:20 33.93344 -118.40915 130 ft 6 kts 84°
2026-04-26 03:20 33.93349 -118.40859 129 ft 9 kts 84°
2026-04-26 03:20 33.93357 -118.40762 129 ft 13 kts 83°
2026-04-26 03:20 33.93372 -118.40630 128 ft 18 kts 83°
2026-04-26 03:21 33.93389 -118.40460 126 ft 22 kts 84°
2026-04-26 03:21 33.93407 -118.40254 123 ft 27 kts 85°
2026-04-26 03:21 33.93433 -118.40012 120 ft 30 kts 81°
2026-04-26 03:21 33.93462 -118.39764 117 ft 29 kts 82°
2026-04-26 03:22 33.93486 -118.39526 113 ft 28 kts 83°
2026-04-26 03:22 33.93507 -118.39324 112 ft 13 kts 83°
2026-04-26 03:22 33.93496 -118.39251 111 ft 6 kts 150°
2026-04-26 03:22 33.93464 -118.39240 111 ft 3 kts 179°